SCP
0 0 0 0 0 0 0 0 0 0 0 0 0 0 0 0 0 0 0 0 0 0 -0 -0 -0 -0 -0 -0 0 0 0 0 0 0 0 0 0 0 0 0 0 0 0
0 0 0 0 0 0 0 0 0 0 0 0 0 0 0 0 0 0 0 0 0 0 -0 -0 -0 -0 -0 -0 0 0 0 0 0 0 0 0 0 0 0 0 0 0 0
0 0 0 0 0 0 0 0 0 0 0 0 0 0 0 0 0 0 0 0 0 0 -0 -0 -0 -0 -0 -0 -0 -0 0 0 0 0 0 0 0 0 0 0 0 0 0
1 1 1 1 0 0 0 0 0 0 0 0 0 0 0 0 0 0 0 0 0 0 -0 -0 -0 -0 -0 -0 -0 -0 -0 0 0 0 0 0 0 0 0 0 0 0 0
1 1 1 1 1 0 0 0 0 0 0 0 0 0 0 0 0 0 0 0 0 0 -0 -0 -0 -0 -0 -0 -0 -0 -0 0 0 0 0 0 0 0 0 0 0 0 0
1 1 1 1 1 0 0 0 0 0 0 0 0 0 0 0 0 0 0 0 0 0 -0 -0 -0 -0 -0 -0 -0 0 0 0 0 0 0 0 0 0 0 0 0 0 0
1 1 1 1 1 0 0 0 0 0 0 0 0 0 0 0 0 0 0 0 0 0 0 -0 -0 -0 -0 -0 0 0 0 0 0 0 0 0 0 0 0 0 0 0 0
1 1 1 1 1 0 0 0 0 0 0 0 0 0 0 0 0 0 0 0 0 0 0 -0 -0 -0 -0 0 0 0 0 0 0 0 0 0 0 0 0 0 0 0 0
1 1 1 1 1 0 0 0 0 0 0 0 0 0 0 0 0 0 0 0 0 0 0 0 -0 -0 0 0 0 0 0 0 0 0 0 0 0 0 0 0 0 0 0
1 1 1 1 1 0 0 0 0 0 0 0 0 0 0 0 0 0 0 0 0 0 0 0 0 0 0 0 0 0 0 0 0 0 0 0 0 0 0 0 0 0 0
1 1 1 1 1 0 0 0 0 0 0 0 0 0 0 -0 -0 -0 0 0 0 0 0 0 0 0 0 0 0 0 0 0 0 0 0 0 0 0 0 0 0 0 0
1 1 1 1 0 0 0 0 0 0 0 -0 -0 -0 -0 -0 -0 -0 -0 0 0 0 0 0 0 0 0 0 0 0 0 0 0 0 0 0 0 0 0 0 0 0 0
1 1 0 0 0 0 0 0 0 0 0 -0 -0 -0 -0 -0 -0 -0 -0 0 0 0 0 0 0 0 0 0 0 0 0 0 0 0 0 0 0 0 0 0 0 0 0
1 1 0 0 0 0 0 0 0 0 0 -0 -0 -0 -0 -0 -0 -0 0 0 0 0 0 0 0 0 0 0 0 0 0 0 0 0 0 0 0 0 0 0 0 0 0
1 1 1 0 0 0 0 0 0 0 0 0 -0 -0 -0 0 0 0 0 0 0 0 0 0 0 0 0 0 0 0 0 0 0 0 0 0 0 0 0 0 0 0 0
1 1 1 1 0 0 0 0 0 0 0 0 0 0 0 0 0 0 0 0 0 0 0 0 0 0 0 0 0 0 0 0 0 0 0 0 0 0 0 0 0 0 0
1 1 1 1 1 0 0 0 0 0 0 0 0 0 0 0 0 0 0 0 0 0 0 0 0 0 0 0 0 0 0 0 0 0 0 0 0 0 0 0 0 0 0
1 1 1 1 1 0 0 0 0 0 0 0 0 0 0 0 0 0 0 0 0 0 0 0 0 0 0 0 0 0 0 0 0 0 0 0 0 0 0 0 0 0 0
1 1 1 1 1 0 0 0 0 0 0 0 0 0 0 0 0 0 0 0 0 0 0 0 0 0 0 0 0 0 0 0 0 0 0 0 0 0 0 0 0 0 0
1 1 1 1 1 0 0 0 0 0 0 0 0 0 0 0 0 0 0 0 0 0 0 0 0 0 0 0 0 0 0 0 0 0 0 -0 0 0 0 0 0 0 0
1 1 1 1 0 0 0 0 0 0 0 0 0 0 0 0 0 0 0 0 0 0 0 0 0 0 0 0 0 0 0 0 0 0 0 0 0 0 0 0 -0 0 0
0 0 0 0 0 0 0 0 0 0 0 0 0 0 0 0 0 0 0 0 0 0 0 0 -0 0 0 0 0 0 0 0 0 0 0 0 0 0 0 0 0 0 0
0 0 0 0 0 0 0 0 0 0 0 0 0 0 0 0 0 0 0 0 0 0 0 0 0 0 0 0 0 0 0 0 0 0 0 0 0 0 0 0 0 0 0
0 0 0 0 0 0 0 0 0 0 0 0 0 0 0 0 0 0 0 0 0 0 0 0 0 0 0 0 0 0 0 0 0 0 0 0 0 0 0 0 0 0 0
0 0 0 0 0 0 0 0 0 0 0 0 0 0 0 0 0 0 0 0 0 0 0 0 0 0 0 0 0 0 0 0 0 0 0 0 0 0 0 0 0 0 0
0 0 0 0 0 0 0 0 0 0 0 0 0 0 0 0 0 0 0 0 0 0 0 0 0 0 0 0 0 0 0 0 0 0 0 0 0 0 0 0 0 0 0
Wind_Speed
9 11 17 18 18 18 18 17 17 16 16 16 16 16 16 16 15 15 14 14 13 13 12 11 11 11 10 11 11 11 12 12 13 14 14 14 15 15 16 16 15 11 17
13 13 19 18 19 18 18 17 17 16 16 16 15 15 15 15 15 14 14 13 13 12 12 11 11 11 10 11 11 11 11 12 13 13 14 13 14 14 15 15 14 10 16
16 13 16 18 19 19 18 18 17 16 16 15 15 14 14 14 14 13 13 13 12 12 12 11 11 11 10 10 10 10 10 12 13 13 12 6 8 14 15 15 15 15 15
16 12 14 19 19 19 18 18 17 16 16 15 14 14 14 14 13 13 13 12 12 12 11 11 10 10 10 10 10 9 10 11 12 12 6 5 6 13 14 15 15 15 15
14 12 15 21 20 19 18 18 17 16 16 15 14 14 14 13 13 13 12 12 12 11 11 10 10 9 9 9 9 8 8 9 11 9 5 5 5 12 14 14 14 14 14
13 11 15 20 20 19 18 18 17 16 15 15 14 14 13 13 13 12 12 11 11 11 10 9 8 8 8 8 8 8 8 9 9 5 5 5 4 11 14 14 14 14 13
13 10 14 20 20 19 18 18 17 17 15 14 14 13 13 12 12 12 11 11 10 10 9 8 8 7 7 8 8 9 8 9 6 5 5 4 5 11 13 13 13 13 13
15 11 12 19 20 19 18 18 17 16 15 14 14 13 12 12 11 11 10 10 10 9 8 7 6 6 6 6 7 8 8 9 8 6 5 4 8 10 12 12 12 12 12
14 12 9 11 14 18 18 17 17 16 15 14 13 12 12 11 11 10 9 9 9 9 8 6 5 4 4 4 5 6 8 10 6 4 6 4 8 11 12 12 12 12 12
12 11 9 8 8 9 11 16 16 15 14 13 12 12 11 10 10 10 8 8 8 8 7 6 5 3 2 2 4 6 8 8 4 4 3 5 10 12 12 12 12 12 12
11 9 9 9 8 7 8 12 13 14 13 11 9 11 9 4 4 5 7 8 8 7 7 6 4 3 1 1 2 5 6 2 4 3 2 7 11 12 12 12 12 12 12
12 10 9 9 8 8 8 7 4 5 5 4 3 4 3 3 3 5 7 9 8 7 6 6 5 3 1 0 1 3 2 3 3 3 3 10 11 12 13 12 12 12 12
14 12 10 9 8 7 5 5 3 3 3 3 3 3 3 2 2 2 2 2 3 4 2 3 2 1 1 1 1 2 2 3 2 2 4 10 11 13 13 12 12 12 12
13 11 10 10 8 6 6 5 4 3 3 2 3 3 3 2 2 2 2 2 1 1 2 1 1 1 1 2 3 4 4 3 3 2 4 11 11 12 13 13 12 12 12
11 11 11 10 8 6 5 5 5 4 4 3 3 3 4 3 3 2 1 1 1 1 2 2 2 2 1 1 2 5 5 5 5 4 3 11 12 11 12 13 13 13 12
11 10 9 10 8 7 5 4 5 4 4 4 3 4 4 3 3 2 2 1 1 1 2 2 2 2 2 2 2 4 4 5 4 4 3 6 11 11 12 13 13 13 13
12 11 10 11 9 8 6 6 6 5 5 4 3 4 4 4 3 3 2 2 1 1 2 2 2 2 2 2 2 3 3 3 4 4 3 2 4 9 11 11 11 12 13
11 11 11 11 10 8 7 6 6 5 5 4 3 3 4 4 4 3 2 1 1 2 2 3 2 2 2 2 1 1 2 2 4 4 3 3 3 3 7 11 11 11 12
11 11 10 9 10 9 7 6 6 6 5 4 4 3 3 4 4 3 2 1 2 3 2 3 2 2 2 1 1 1 1 2 2 3 3 4 4 3 3 6 9 10 12
8 9 10 9 9 8 7 6 5 5 4 3 3 4 4 4 4 4 3 3 3 3 3 3 3 2 1 1 1 1 1 1 1 2 2 2 3 4 4 4 4 6 11
8 8 9 10 8 8 6 6 6 4 3 3 3 4 4 4 4 4 3 3 3 3 3 3 2 3 2 1 3 3 3 2 0 1 1 1 2 3 3 3 3 3 3
9 9 9 8 8 8 6 5 4 5 3 3 3 3 4 4 4 4 4 3 3 3 4 3 3 2 2 2 3 3 2 4 3 1 0 1 1 1 2 3 3 3 2
9 10 10 8 8 7 7 5 5 4 3 2 2 2 2 4 4 4 5 4 3 3 3 3 3 3 2 2 1 4 3 2 2 3 2 0 1 1 1 1 3 3 3
10 9 9 8 7 7 7 8 9 6 5 4 4 3 3 4 4 5 5 5 4 3 3 2 3 2 3 2 2 1 2 3 3 0 3 2 1 1 1 1 2 2 3
9 9 8 8 7 7 7 8 8 5 4 3 3 4 3 2 4 4 5 5 4 3 3 3 3 3 3 2 1 1 2 2 2 3 1 3 3 2 2 2 2 2 3
8 8 8 8 7 7 7 7 7 7 6 6 5 5 3 2 2 3 4 4 4 3 3 3 3 3 3 3 2 2 2 2 1 2 2 1 2 3 2 2 2 2 3
Wind_Direction
148 151 145 139 134 130 126 122 118 115 112 109 107 105 104 104 104 104 105 104 104 101 98 96 95 93 93 95 99 104 108 109 110 113 115 116 114 113 112 110 109 107 110
147 150 144 140 136 133 130 126 123 121 118 116 113 111 110 109 109 108 108 106 105 104 101 96 94 92 93 95 99 103 108 110 112 113 113 114 113 114 114 113 112 113 113
142 146 143 140 137 135 132 130 128 126 124 122 120 118 116 114 113 112 110 109 107 106 103 98 94 92 92 94 96 99 105 111 113 110 106 99 107 113 116 115 114 113 113
141 142 142 141 138 137 136 134 132 130 128 127 126 123 121 120 118 115 114 112 110 108 105 100 95 92 92 93 94 96 104 115 117 113 103 100 108 117 118 117 114 114 113
139 140 144 142 140 139 138 136 135 134 133 131 130 128 125 123 122 120 118 116 113 110 106 101 96 92 91 92 91 92 100 111 118 110 103 95 102 120 120 119 116 115 115
137 139 144 142 141 140 140 139 138 138 137 135 133 131 130 129 127 126 124 120 117 114 110 105 98 93 91 88 84 83 92 107 110 106 110 113 113 125 124 122 120 118 118
137 139 143 142 142 142 143 143 142 141 141 141 139 136 135 134 134 132 130 127 123 120 116 112 105 96 90 84 80 80 88 116 115 116 117 117 124 128 126 123 121 120 120
140 139 143 145 145 145 146 146 145 145 146 146 145 144 143 143 142 140 138 136 134 130 126 121 115 104 93 82 78 82 93 123 129 133 124 122 133 131 128 126 125 124 123
141 140 142 148 148 149 149 149 149 150 151 152 151 150 149 149 150 150 150 149 146 144 141 135 126 115 100 82 76 85 95 124 129 135 137 131 139 138 136 134 133 130 129
142 145 145 146 146 147 150 152 153 154 155 156 156 156 158 159 160 161 162 164 161 157 156 155 149 141 114 80 81 92 103 120 126 131 128 151 150 147 145 143 140 137 134
147 149 149 148 148 147 150 157 155 157 160 160 162 165 162 159 163 169 178 180 176 172 172 174 174 180 192 17 90 106 103 114 123 134 153 163 159 156 153 151 148 146 142
157 158 157 154 155 156 159 147 151 154 156 156 161 159 151 164 183 185 193 193 189 187 189 194 195 200 200 16 81 113 115 140 144 156 175 173 168 165 161 158 156 154 150
162 162 159 159 161 164 150 151 153 144 149 158 165 162 155 158 174 170 167 193 194 193 193 206 202 186 178 164 134 131 141 135 152 165 183 182 177 174 168 166 163 162 159
160 162 158 158 160 162 153 159 156 150 155 156 156 150 138 131 131 141 150 161 156 167 177 174 176 193 191 167 142 135 138 143 160 166 195 192 185 180 176 174 172 171 169
160 163 160 154 155 158 155 163 156 154 153 145 132 128 129 126 127 132 140 140 149 152 158 155 170 179 160 140 132 135 148 156 164 170 197 199 190 184 183 183 181 180 179
159 159 153 150 155 156 157 158 149 147 138 127 121 122 121 123 124 116 107 116 119 139 153 158 165 158 153 141 135 139 151 153 166 182 191 202 196 191 190 189 189 188 187
159 155 155 152 156 155 152 156 143 139 132 124 122 118 117 117 113 108 108 104 100 112 126 116 108 101 126 127 123 138 147 157 169 181 188 197 203 204 200 196 196 196 195
156 159 161 154 152 151 150 138 132 133 129 127 122 111 108 104 102 100 105 98 79 85 99 106 92 90 80 95 106 138 153 164 172 184 191 196 203 210 211 207 203 203 202
162 161 156 153 148 149 142 129 127 126 125 128 123 112 104 97 99 100 95 81 84 88 85 101 86 105 103 96 123 129 145 156 166 178 191 203 206 206 204 217 213 210 209
160 157 150 153 148 141 130 117 113 110 118 122 122 122 113 101 97 97 91 75 85 89 80 84 86 78 108 122 73 67 65 154 169 172 194 195 211 207 202 211 210 219 219
156 158 155 152 151 144 138 133 131 133 140 131 134 134 122 109 99 94 91 76 84 93 97 96 87 69 49 73 71 30 3 6 360 203 171 170 202 203 193 202 200 207 225
163 160 152 154 154 152 146 141 138 138 145 141 133 128 129 118 115 106 104 100 91 90 75 67 77 82 28 60 112 91 30 355 345 339 276 174 180 169 191 198 195 201 212
170 167 164 161 157 154 145 126 117 101 93 92 118 136 144 131 121 114 111 105 94 102 97 83 82 102 80 20 84 135 140 200 298 332 321 261 184 165 200 203 196 198 201
175 168 161 161 159 157 148 141 146 147 153 175 171 166 159 147 138 130 119 110 104 107 109 107 92 100 106 64 13 38 142 156 142 318 328 323 303 217 211 203 191 194 191
170 165 164 161 165 164 156 152 151 148 156 153 148 151 156 157 157 147 132 123 120 116 116 106 95 88 100 111 88 54 54 55 85 130 237 315 332 307 261 227 195 194 186
164 161 164 163 168 171 162 155 154 155 155 149 156 166 174 174 169 168 150 141 141 137 135 128 117 107 104 101 94 91 107 107 115 127 159 256 290 294 291 267 222 210 199